Showing default

FLOCK 4BE 7, 60481

Orbit data source: Space-Track

FLOCK 4BE 7, 60481 is a payload satellite owned by Planet (US) in SSO that was launched on Fri, 16 Aug 2024 UTC via an FALCON 9 launch vehicle from the Air Force Western Test Range (AFWTR). Payload-class satellites include a variety of spacecraft equipped with specific instruments for various scientific and technological missions. These include communications satellites like Starlink; space stations such as the ISS; scientific satellites like the Hubble; Earth observation satellites from companies like Planet Labs, Umbra, and HawkEye 360; GPS; miniature CubeSats for education and research; and military/defense satellites.

Loading next visibility...
Identifier
60481, 2024-149P
Orbit
SSO
Country
Flag of USUS
Related business
Manufacturer
Planet
Mission
Operational Commercial Imaging
Bus & Motor
CUBESAT 3U, Unknown motor
Mass
5.7 kg wet, 5.7 kg dry
Launch date (UTC)
2024-08-16 (2 years ago)
Launch vehicle
FALCON 9
Launch site
Air Force Western Test Range (AFWTR)
Object type
Payload
Rocket body
Debris
Shape & HBR
Box + 2 Pan, 1.0 m
Radar Cross Section
0.072 m², Medium (>0.1 m² and < 1m²)

Expand to show TLE details & history
Last TLE update: 21 hours ago

TLE from 21 hours ago
0 FLOCK 4BE 7
1 60481U 24149P   26126.16195747  .00018464  00000-0  48525-3 0  9996
2 60481  97.3756 208.9311 0003669  72.9650 287.1997 15.38642605 95787
Epoch: 2026-05-06T03:53Z
TLE epoch observation values (Epoch: 2026-05-06T03:53:13.125Z)
Latitude
-0.00003°
Longitude
-73.4°
Altitude
452.499 km
Speed
7.641 km/s
True Right ascension
13h 55m 43s
True Declination
0° 00' 00"
Sunlit
Object was in full shadow at epoch
Visualization orbit readout
Latitude
Unknown
Longitude
Unknown
Altitude
Unknown
Speed
Unknown
Apparent Right ascension
Unknown
Apparent Declination
Unknown
Sunlit
N/A
Visualization observer readout
Local Sidereal Time
08:31:06
Azimuth
Unknown
Elevation
Unknown
Doppler factor
Unknown
Orbital elements
Apogee altitude
449.566 km
Perigee altitude
444.558 km
Semi-major axis
6,825.199 km
Eccentricity
0.00037
Inclination
97.3756°
RAAN
208.9311°
Arg. of periapsis
72.965°
True anomaly
287.15953°
Mean anomaly
287.1997°
Eccentric anomaly
287.17962°
Mean motion
3.8492 °/min
Orbital period
93.53 mins
BSTAR
0.00048525
Loading maneuver chart data...
Computing Atmospheric mass density...
Loading historical data...
Loading historical data...
Loading historical data...
Loading historical data...
Loading historical data...
Loading historical data...
Loading historical data...

Documentation

Showing up to 5 results
|